Time,TemperatureF,DewpointF,PressureIn,WindDirection,WindDirectionDegrees,WindSpeedMPH,WindSpeedGustMPH,Humidity,HourlyPrecipIn,Conditions,Clouds,dailyrainin,SoftwareType,DateUTC
2013-05-28 00:01:00,57.2,50.7,28.85,NE,45,1.2,0.0,79,0.00,CLR,SKC,0.00,WeatherDisplay:10.37,2013-05-28 04:01:00,
2013-05-28 00:02:00,57.2,50.7,28.85,NE,45,1.2,0.0,79,0.00,CLR,SKC,0.00,WeatherDisplay:10.37,2013-05-28 04:02:00,
2013-05-28 00:03:00,57.2,50.7,28.84,NE,45,1.2,0.0,79,0.00,CLR,SKC,0.00,WeatherDisplay:10.37,2013-05-28 04:03:00,
2013-05-28 00:08:00,57.6,50.8,28.84,East,90,4.6,4.6,78,0.00,CLR,SKC,0.00,WeatherDisplay:10.37,2013-05-28 04:08:00,
2013-05-28 00:13:00,57.9,50.8,28.84,East,90,5.4,5.4,77,0.00,CLR,SKC,0.00,WeatherDisplay:10.37,2013-05-28 04:13:00,
2013-05-28 00:18:00,57.9,50.8,28.84,East,90,3.5,3.5,77,0.00,CLR,SKC,0.00,WeatherDisplay:10.37,2013-05-28 04:18:00,
2013-05-28 00:23:00,58.1,50.9,28.84,East,90,3.5,3.5,77,0.00,CLR,SKC,0.00,WeatherDisplay:10.37,2013-05-28 04:23:00,
2013-05-28 00:28:00,58.1,50.9,28.84,SE,135,2.3,2.3,77,0.00,CLR,SKC,0.00,WeatherDisplay:10.37,2013-05-28 04:28:00,
2013-05-28 00:33:00,58.1,50.9,28.84,NE,45,2.3,2.3,77,0.00,CLR,SKC,0.00,WeatherDisplay:10.37,2013-05-28 04:33:00,
2013-05-28 00:38:00,58.1,50.9,28.84,East,90,1.2,1.2,77,0.00,CLR,SKC,0.00,WeatherDisplay:10.37,2013-05-28 04:38:00,
2013-05-28 00:43:00,58.1,50.9,28.84,NE,45,2.3,0.0,77,0.00,CLR,SKC,0.00,WeatherDisplay:10.37,2013-05-28 04:43:00,
2013-05-28 00:48:00,58.1,50.9,28.84,NE,45,0.0,0.0,77,0.00,CLR,SKC,0.00,WeatherDisplay:10.37,2013-05-28 04:48:00,
2013-05-28 00:53:00,58.1,50.9,28.84,NE,45,0.0,0.0,77,0.00,CLR,SKC,0.00,WeatherDisplay:10.37,2013-05-28 04:53:00,
2013-05-28 00:58:00,58.1,50.9,28.84,NE,45,0.0,0.0,77,0.00,CLR,SKC,0.00,WeatherDisplay:10.37,2013-05-28 04:58:00,
2013-05-28 01:03:00,58.1,50.9,28.84,North,0,2.3,2.3,77,0.00,CLR,SKC,0.00,WeatherDisplay:10.37,2013-05-28 05:03:00,
2013-05-28 01:08:00,58.1,50.9,28.83,NE,45,3.5,0.0,77,0.00,CLR,SKC,0.00,WeatherDisplay:10.37,2013-05-28 05:08:00,
2013-05-28 01:13:00,58.3,51.1,28.83,NE,45,0.0,0.0,77,0.00,CLR,SKC,0.00,WeatherDisplay:10.37,2013-05-28 05:13:00,
2013-05-28 01:18:00,58.3,51.1,28.83,NE,45,0.0,0.0,77,0.00,CLR,SKC,0.00,WeatherDisplay:10.37,2013-05-28 05:18:00,
2013-05-28 01:23:00,58.3,51.1,28.83,NE,45,0.0,0.0,77,0.00,CLR,SKC,0.00,WeatherDisplay:10.37,2013-05-28 05:23:00,
2013-05-28 01:28:00,58.5,51.3,28.83,NE,45,0.0,0.0,77,0.00,CLR,SKC,0.00,WeatherDisplay:10.37,2013-05-28 05:28:00,
2013-05-28 01:33:00,58.5,51.3,28.83,NE,45,0.0,0.0,77,0.00,CLR,SKC,0.00,WeatherDisplay:10.37,2013-05-28 05:33:00,
2013-05-28 01:38:00,58.5,51.3,28.82,NE,45,0.0,0.0,77,0.00,CLR,SKC,0.00,WeatherDisplay:10.37,2013-05-28 05:38:00,
2013-05-28 01:43:00,58.6,51.4,28.82,NE,45,0.0,0.0,77,0.00,CLR,SKC,0.00,WeatherDisplay:10.37,2013-05-28 05:43:00,
2013-05-28 01:48:00,58.6,51.8,28.82,NE,45,1.2,0.0,78,0.00,CLR,SKC,0.00,WeatherDisplay:10.37,2013-05-28 05:48:00,
2013-05-28 01:53:00,58.6,51.8,28.82,NE,45,0.0,0.0,78,0.00,CLR,SKC,0.00,WeatherDisplay:10.37,2013-05-28 05:53:00,
2013-05-28 01:58:00,58.6,52.5,28.82,North,0,2.3,0.0,80,0.00,CLR,SKC,0.00,WeatherDisplay:10.37,2013-05-28 05:58:00,
2013-05-28 02:03:00,58.3,52.8,28.82,NW,315,3.5,0.0,82,0.00,CLR,SKC,0.00,WeatherDisplay:10.37,2013-05-28 06:03:00,
2013-05-28 02:08:00,57.9,52.8,28.82,NW,315,3.5,3.5,83,0.00,CLR,SKC,0.00,WeatherDisplay:10.37,2013-05-28 06:08:00,
2013-05-28 02:13:00,57.9,52.8,28.82,North,0,5.8,5.8,83,0.00,CLR,SKC,0.00,WeatherDisplay:10.37,2013-05-28 06:13:00,
2013-05-28 02:18:00,57.9,53.1,28.81,North,0,8.1,8.1,84,0.00,CLR,SKC,0.00,WeatherDisplay:10.37,2013-05-28 06:18:00,
2013-05-28 02:23:00,57.6,53.1,28.81,North,0,5.8,5.8,85,0.00,CLR,SKC,0.00,WeatherDisplay:10.37,2013-05-28 06:23:00,
2013-05-28 02:28:00,57.2,52.7,28.81,NE,45,6.9,0.0,85,0.00,CLR,SKC,0.00,WeatherDisplay:10.37,2013-05-28 06:28:00,
2013-05-28 02:33:00,57.0,52.9,28.81,North,0,1.2,1.2,86,0.00,CLR,SKC,0.00,WeatherDisplay:10.37,2013-05-28 06:33:00,
2013-05-28 02:38:00,57.0,52.9,28.81,NW,315,5.8,5.8,86,0.00,CLR,SKC,0.00,WeatherDisplay:10.37,2013-05-28 06:38:00,
2013-05-28 02:43:00,56.8,53.3,28.82,NW,315,5.8,5.8,88,0.00,CLR,SKC,0.00,WeatherDisplay:10.37,2013-05-28 06:43:00,
2013-05-28 02:48:00,56.5,53.6,28.82,NW,315,6.9,6.9,90,0.00,CLR,SKC,0.00,WeatherDisplay:10.37,2013-05-28 06:48:00,
2013-05-28 02:53:00,55.8,54.1,28.82,NW,315,9.2,9.2,94,0.00,CLR,SKC,0.00,WeatherDisplay:10.37,2013-05-28 06:53:00,
2013-05-28 02:58:00,55.0,54.2,28.82,NW,315,6.9,6.9,97,0.00,CLR,SKC,0.00,WeatherDisplay:10.37,2013-05-28 06:58:00,
2013-05-28 03:03:00,54.7,54.4,28.82,NW,315,6.9,6.9,99,0.00,CLR,SKC,0.00,WeatherDisplay:10.37,2013-05-28 07:03:00,
2013-05-28 03:08:00,54.5,54.5,28.83,North,0,5.8,5.8,100,0.00,CLR,SKC,0.00,WeatherDisplay:10.37,2013-05-28 07:08:00,
2013-05-28 03:13:00,54.3,54.3,28.83,WNW,292,10.4,10.4,100,0.00,CLR,SKC,0.00,WeatherDisplay:10.37,2013-05-28 07:13:00,
2013-05-28 03:18:00,54.3,54.3,28.82,NE,45,8.1,8.1,100,0.00,CLR,SKC,0.00,WeatherDisplay:10.37,2013-05-28 07:18:00,
2013-05-28 03:23:00,54.1,54.1,28.83,NE,45,6.9,0.0,100,0.00,CLR,SKC,0.00,WeatherDisplay:10.37,2013-05-28 07:23:00,
2013-05-28 03:28:00,54.0,54.0,28.82,North,0,3.5,3.5,100,0.00,CLR,SKC,0.00,WeatherDisplay:10.37,2013-05-28 07:28:00,
2013-05-28 03:33:00,53.8,53.8,28.81,NE,45,2.3,0.0,100,0.00,CLR,SKC,0.00,WeatherDisplay:10.37,2013-05-28 07:33:00,
2013-05-28 03:38:00,53.6,53.6,28.81,NE,45,4.6,4.6,100,0.00,CLR,SKC,0.00,WeatherDisplay:10.37,2013-05-28 07:38:00,
2013-05-28 03:43:00,53.4,53.4,28.81,North,0,5.8,5.8,100,0.00,CLR,SKC,0.00,WeatherDisplay:10.37,2013-05-28 07:43:00,
2013-05-28 03:48:00,53.4,53.4,28.80,NE,45,5.8,5.8,100,0.00,CLR,SKC,0.00,WeatherDisplay:10.37,2013-05-28 07:48:00,
2013-05-28 03:53:00,53.4,53.4,28.80,North,0,5.8,5.8,100,0.00,CLR,SKC,0.00,WeatherDisplay:10.37,2013-05-28 07:53:00,
2013-05-28 03:58:00,53.4,53.4,28.80,North,0,6.9,6.9,100,0.00,CLR,SKC,0.01,WeatherDisplay:10.37,2013-05-28 07:58:00,
2013-05-28 04:03:00,53.4,53.4,28.80,NE,45,3.5,3.5,100,0.01,RA,SKC,0.01,WeatherDisplay:10.37,2013-05-28 08:03:00,
2013-05-28 04:08:00,53.4,53.4,28.80,North,0,6.9,6.9,100,0.01,RA,SKC,0.01,WeatherDisplay:10.37,2013-05-28 08:08:00,
2013-05-28 04:13:00,53.6,53.6,28.80,NE,45,3.5,3.5,100,0.01,CLR,SKC,0.01,WeatherDisplay:10.37,2013-05-28 08:13:00,
2013-05-28 04:18:00,53.6,53.6,28.79,North,0,5.8,0.0,100,0.01,CLR,SKC,0.01,WeatherDisplay:10.37,2013-05-28 08:18:00,
2013-05-28 04:23:00,53.6,53.6,28.79,NE,45,1.2,0.0,100,0.01,CLR,SKC,0.01,WeatherDisplay:10.37,2013-05-28 08:23:00,
2013-05-28 04:28:00,53.8,53.8,28.80,NE,45,0.0,0.0,100,0.01,CLR,SKC,0.01,WeatherDisplay:10.37,2013-05-28 08:28:00,
2013-05-28 04:33:00,53.8,53.8,28.79,NE,45,0.0,0.0,100,0.01,CLR,SKC,0.01,WeatherDisplay:10.37,2013-05-28 08:33:00,
2013-05-28 04:38:00,53.8,53.8,28.79,East,90,0.0,0.0,100,0.01,CLR,SKC,0.01,WeatherDisplay:10.37,2013-05-28 08:38:00,
2013-05-28 04:43:00,54.0,54.0,28.79,NE,45,2.3,0.0,100,0.01,CLR,SKC,0.01,WeatherDisplay:10.37,2013-05-28 08:43:00,
2013-05-28 04:48:00,54.0,54.0,28.79,NE,45,1.2,1.2,100,0.01,CLR,SKC,0.01,WeatherDisplay:10.37,2013-05-28 08:48:00,
2013-05-28 04:53:00,54.0,54.0,28.79,NE,45,1.2,1.2,100,0.01,CLR,SKC,0.01,WeatherDisplay:10.37,2013-05-28 08:53:00,
2013-05-28 04:58:00,54.1,54.1,28.79,NE,45,1.2,0.0,100,0.01,CLR,SKC,0.01,WeatherDisplay:10.37,2013-05-28 08:58:00,
2013-05-28 05:03:00,54.1,54.1,28.79,NE,45,0.0,0.0,100,0.00,CLR,SKC,0.01,WeatherDisplay:10.37,2013-05-28 09:03:00,
2013-05-28 05:08:00,54.3,54.3,28.79,North,0,0.0,0.0,100,0.00,CLR,SKC,0.01,WeatherDisplay:10.37,2013-05-28 09:08:00,
2013-05-28 05:13:00,54.3,54.3,28.79,NE,45,2.3,0.0,100,0.00,CLR,SKC,0.01,WeatherDisplay:10.37,2013-05-28 09:13:00,
2013-05-28 05:18:00,54.3,54.3,28.79,North,0,3.5,3.5,100,0.00,CLR,SKC,0.01,WeatherDisplay:10.37,2013-05-28 09:18:00,
2013-05-28 05:23:00,54.7,54.7,28.79,North,0,3.5,3.5,100,0.00,CLR,SKC,0.01,WeatherDisplay:10.37,2013-05-28 09:23:00,
2013-05-28 05:28:00,54.7,54.7,28.79,North,0,3.5,3.5,100,0.00,CLR,SKC,0.01,WeatherDisplay:10.37,2013-05-28 09:28:00,
2013-05-28 05:33:00,54.9,54.9,28.80,North,0,3.5,3.5,100,0.00,CLR,SKC,0.01,WeatherDisplay:10.37,2013-05-28 09:33:00,
2013-05-28 05:38:00,55.0,55.0,28.81,North,0,0.0,0.0,100,0.00,CLR,SKC,0.01,WeatherDisplay:10.37,2013-05-28 09:38:00,
2013-05-28 05:43:00,55.0,55.0,28.82,North,0,0.0,0.0,100,0.01,RA,SKC,0.02,WeatherDisplay:10.37,2013-05-28 09:43:00,
2013-05-28 05:48:00,55.0,55.0,28.82,NW,315,3.5,3.5,100,0.01,RA,SKC,0.02,WeatherDisplay:10.37,2013-05-28 09:48:00,
2013-05-28 05:53:00,55.0,55.0,28.81,East,90,1.2,0.0,100,0.02,RA,SKC,0.04,WeatherDisplay:10.37,2013-05-28 09:53:00,
2013-05-28 05:58:00,55.2,55.2,28.81,East,90,0.0,0.0,100,0.04,RA,SKC,0.05,WeatherDisplay:10.37,2013-05-28 09:58:00,
2013-05-28 06:03:00,55.2,55.2,28.82,SE,135,1.2,0.0,100,0.04,RA,SKC,0.05,WeatherDisplay:10.37,2013-05-28 10:03:00,
2013-05-28 06:08:00,55.2,55.2,28.82,East,90,1.2,0.0,100,0.06,RA,SKC,0.07,WeatherDisplay:10.37,2013-05-28 10:08:00,
2013-05-28 06:13:00,55.2,55.2,28.83,East,90,1.2,0.0,100,0.07,RA,SKC,0.08,WeatherDisplay:10.37,2013-05-28 10:13:00,
2013-05-28 06:18:00,55.2,55.2,28.82,East,90,0.0,0.0,100,0.07,RA,SKC,0.08,WeatherDisplay:10.37,2013-05-28 10:18:00,
2013-05-28 06:23:00,55.0,55.0,28.83,East,90,1.2,0.0,100,0.08,RA,SKC,0.09,WeatherDisplay:10.37,2013-05-28 10:23:00,
2013-05-28 06:28:00,55.2,55.2,28.82,NE,45,0.0,0.0,100,0.09,RA,SKC,0.11,WeatherDisplay:10.37,2013-05-28 10:28:00,
2013-05-28 06:33:00,55.2,55.2,28.82,NE,45,3.5,3.5,100,0.09,RA,SKC,0.11,WeatherDisplay:10.37,2013-05-28 10:33:00,
2013-05-28 06:38:00,55.2,55.2,28.81,ENE,68,3.5,3.5,100,0.09,,SKC,0.11,WeatherDisplay:10.37,2013-05-28 10:38:00,
2013-05-28 06:43:00,55.2,55.2,28.81,NE,45,2.3,0.0,100,0.08,CLR,SKC,0.11,WeatherDisplay:10.37,2013-05-28 10:43:00,
2013-05-28 06:48:00,55.2,55.2,28.81,East,90,1.2,0.0,100,0.08,CLR,SKC,0.11,WeatherDisplay:10.37,2013-05-28 10:48:00,
2013-05-28 06:53:00,55.2,55.2,28.82,East,90,0.0,0.0,100,0.07,CLR,SKC,0.11,WeatherDisplay:10.37,2013-05-28 10:53:00,
2013-05-28 06:58:00,55.2,55.2,28.82,East,90,2.3,2.3,100,0.07,RA,SKC,0.12,WeatherDisplay:10.37,2013-05-28 10:58:00,
2013-05-28 07:03:00,55.2,55.2,28.82,ENE,68,1.2,0.0,100,0.07,RA,SKC,0.12,WeatherDisplay:10.37,2013-05-28 11:03:00,
2013-05-28 07:08:00,55.2,55.2,28.81,ENE,68,1.6,0.0,100,0.05,CLR,SKC,0.12,WeatherDisplay:10.37,2013-05-28 11:08:00,
2013-05-28 07:13:00,55.8,55.8,28.81,East,90,3.5,3.5,100,0.05,RA,SKC,0.13,WeatherDisplay:10.37,2013-05-28 11:13:00,
2013-05-28 07:18:00,55.9,55.9,28.81,NE,45,3.5,3.5,100,0.05,RA,SKC,0.13,WeatherDisplay:10.37,2013-05-28 11:18:00,
2013-05-28 07:23:00,56.3,56.3,28.81,East,90,5.8,5.8,100,0.04,CLR,SKC,0.13,WeatherDisplay:10.37,2013-05-28 11:23:00,
2013-05-28 07:28:00,56.5,56.5,28.81,NE,45,3.5,3.5,100,0.02,CLR,SKC,0.13,WeatherDisplay:10.37,2013-05-28 11:28:00,
2013-05-28 07:33:00,56.8,56.8,28.81,East,90,3.5,0.0,100,0.02,CLR,SKC,0.13,WeatherDisplay:10.37,2013-05-28 11:33:00,
2013-05-28 07:38:00,57.0,57.0,28.81,East,90,2.3,2.3,100,0.02,CLR,SKC,0.13,WeatherDisplay:10.37,2013-05-28 11:38:00,
2013-05-28 07:43:00,57.2,57.2,28.82,East,90,2.3,2.3,100,0.02,CLR,SKC,0.13,WeatherDisplay:10.37,2013-05-28 11:43:00,
2013-05-28 07:48:00,57.4,57.4,28.81,NE,45,1.2,0.0,100,0.02,CLR,SKC,0.13,WeatherDisplay:10.37,2013-05-28 11:48:00,
2013-05-28 07:53:00,57.4,57.4,28.81,SSW,202,2.3,2.3,100,0.02,CLR,SKC,0.13,WeatherDisplay:10.37,2013-05-28 11:53:00,
2013-05-28 07:58:00,57.6,57.6,28.81,NE,45,3.5,3.5,100,0.01,CLR,SKC,0.13,WeatherDisplay:10.37,2013-05-28 11:58:00,
2013-05-28 08:03:00,57.7,57.7,28.81,East,90,2.3,2.3,100,0.01,CLR,SKC,0.13,WeatherDisplay:10.37,2013-05-28 12:03:00,
2013-05-28 08:08:00,57.9,57.9,28.81,East,90,3.5,0.0,100,0.01,CLR,SKC,0.13,WeatherDisplay:10.37,2013-05-28 12:08:00,
2013-05-28 08:13:00,57.9,57.9,28.81,NE,45,3.5,0.0,100,0.00,CLR,SKC,0.13,WeatherDisplay:10.37,2013-05-28 12:13:00,
2013-05-28 08:18:00,58.1,58.1,28.81,East,90,1.2,0.0,100,0.00,CLR,SKC,0.13,WeatherDisplay:10.37,2013-05-28 12:18:00,
2013-05-28 08:23:00,58.3,58.3,28.81,ENE,68,1.2,0.0,100,0.00,CLR,SKC,0.13,WeatherDisplay:10.37,2013-05-28 12:23:00,
2013-05-28 08:28:00,58.6,58.6,28.82,NE,45,3.5,0.0,100,0.00,CLR,SKC,0.13,WeatherDisplay:10.37,2013-05-28 12:28:00,
2013-05-28 08:33:00,59.0,59.0,28.82,East,90,1.2,0.0,100,0.00,CLR,SKC,0.13,WeatherDisplay:10.37,2013-05-28 12:33:00,
2013-05-28 08:38:00,59.2,59.2,28.82,East,90,1.2,0.0,100,0.00,CLR,SKC,0.13,WeatherDisplay:10.37,2013-05-28 12:38:00,
2013-05-28 08:43:00,59.4,59.4,28.82,South,180,3.5,0.0,100,0.00,CLR,SKC,0.13,WeatherDisplay:10.37,2013-05-28 12:43:00,
2013-05-28 08:48:00,59.5,59.5,28.82,East,90,2.3,0.0,100,0.01,RA,SKC,0.14,WeatherDisplay:10.37,2013-05-28 12:48:00,
2013-05-28 08:53:00,59.5,59.5,28.82,East,90,0.0,0.0,100,0.01,RA,SKC,0.14,WeatherDisplay:10.37,2013-05-28 12:53:00,
2013-05-28 08:58:00,59.7,59.7,28.82,SE,135,2.3,0.0,100,0.01,CLR,SKC,0.14,WeatherDisplay:10.37,2013-05-28 12:58:00,
2013-05-28 09:03:00,59.9,59.9,28.82,East,90,1.2,0.0,100,0.01,CLR,SKC,0.14,WeatherDisplay:10.37,2013-05-28 13:03:00,
2013-05-28 09:08:00,60.1,60.1,28.82,East,90,3.5,0.0,100,0.01,CLR,SKC,0.14,WeatherDisplay:10.37,2013-05-28 13:08:00,
2013-05-28 09:13:00,60.1,60.1,28.82,East,90,0.0,0.0,100,0.01,CLR,SKC,0.14,WeatherDisplay:10.37,2013-05-28 13:13:00,
2013-05-28 09:18:00,60.3,60.3,28.82,East,90,3.5,0.0,100,0.01,CLR,SKC,0.14,WeatherDisplay:10.37,2013-05-28 13:18:00,
2013-05-28 09:23:00,60.4,60.4,28.82,East,90,2.3,0.0,100,0.01,CLR,SKC,0.14,WeatherDisplay:10.37,2013-05-28 13:23:00,
2013-05-28 09:28:00,60.4,60.4,28.82,East,90,3.5,0.0,100,0.01,CLR,SKC,0.14,WeatherDisplay:10.37,2013-05-28 13:28:00,
2013-05-28 09:34:00,60.6,60.6,28.82,East,90,6.9,0.0,100,0.01,CLR,SKC,0.14,WeatherDisplay:10.37,2013-05-28 13:34:00,
2013-05-28 09:39:00,60.8,60.8,28.82,East,90,2.3,0.0,100,0.01,CLR,SKC,0.14,WeatherDisplay:10.37,2013-05-28 13:39:00,
2013-05-28 09:44:00,61.0,61.0,28.83,SE,135,1.2,0.0,100,0.01,CLR,SKC,0.14,WeatherDisplay:10.37,2013-05-28 13:44:00,
2013-05-28 09:49:00,61.2,61.2,28.83,East,90,3.5,0.0,100,0.00,CLR,SKC,0.14,WeatherDisplay:10.37,2013-05-28 13:49:00,
2013-05-28 09:54:00,61.3,61.3,28.82,East,90,3.5,3.5,100,0.00,CLR,SKC,0.14,WeatherDisplay:10.37,2013-05-28 13:54:00,
2013-05-28 09:59:00,61.3,61.3,28.82,SE,135,1.2,0.0,100,0.00,CLR,SKC,0.14,WeatherDisplay:10.37,2013-05-28 13:59:00,
2013-05-28 10:04:00,61.3,61.3,28.82,SE,135,0.0,0.0,100,0.00,CLR,SKC,0.14,WeatherDisplay:10.37,2013-05-28 14:04:00,
2013-05-28 10:09:00,61.3,61.3,28.83,SE,135,0.0,0.0,100,0.00,CLR,SKC,0.14,WeatherDisplay:10.37,2013-05-28 14:09:00,
2013-05-28 10:14:00,61.5,61.5,28.83,South,180,0.0,0.0,100,0.00,CLR,SKC,0.14,WeatherDisplay:10.37,2013-05-28 14:14:00,
2013-05-28 10:19:00,61.5,61.5,28.83,SE,135,2.3,0.0,100,0.00,CLR,SKC,0.14,WeatherDisplay:10.37,2013-05-28 14:19:00,
2013-05-28 10:24:00,61.7,61.7,28.84,North,6,3.5,3.5,100,0.00,CLR,SKC,0.14,WeatherDisplay:10.37,2013-05-28 14:24:00,
2013-05-28 10:29:00,61.7,61.7,28.84,North,0,4.6,4.6,100,0.00,CLR,SKC,0.14,WeatherDisplay:10.37,2013-05-28 14:29:00,
2013-05-28 10:34:00,61.9,61.9,28.84,North,0,5.8,0.0,100,0.00,CLR,SKC,0.14,WeatherDisplay:10.37,2013-05-28 14:34:00,
2013-05-28 10:39:00,62.2,62.2,28.84,South,180,2.3,2.3,100,0.00,CLR,SKC,0.14,WeatherDisplay:10.37,2013-05-28 14:39:00,
2013-05-28 10:44:00,62.2,62.2,28.84,North,0,2.3,0.0,100,0.00,CLR,SKC,0.14,WeatherDisplay:10.37,2013-05-28 14:44:00,
2013-05-28 10:49:00,62.8,62.8,28.84,East,90,0.0,0.0,100,0.00,CLR,SKC,0.14,WeatherDisplay:10.37,2013-05-28 14:49:00,
2013-05-28 10:54:00,63.3,63.3,28.84,East,90,0.0,0.0,100,0.00,CLR,SKC,0.14,WeatherDisplay:10.37,2013-05-28 14:54:00,
2013-05-28 10:59:00,63.7,63.7,28.84,SE,135,0.0,0.0,100,0.00,CLR,SKC,0.14,WeatherDisplay:10.37,2013-05-28 14:59:00,
2013-05-28 11:04:00,64.2,64.2,28.84,East,90,0.0,0.0,100,0.00,CLR,SKC,0.14,WeatherDisplay:10.37,2013-05-28 15:04:00,
2013-05-28 11:09:00,64.6,64.6,28.84,East,90,0.0,0.0,100,0.00,CLR,SKC,0.14,WeatherDisplay:10.37,2013-05-28 15:09:00,
2013-05-28 11:14:00,64.6,64.6,28.84,SE,135,0.0,0.0,100,0.00,CLR,SKC,0.14,WeatherDisplay:10.37,2013-05-28 15:14:00,
2013-05-28 11:19:00,64.2,62.5,28.84,East,90,1.2,0.0,94,0.00,CLR,SKC,0.14,WeatherDisplay:10.37,2013-05-28 15:19:00,
2013-05-28 11:24:00,64.8,60.5,28.84,East,90,0.0,0.0,86,0.00,CLR,SKC,0.14,WeatherDisplay:10.37,2013-05-28 15:24:00,
2013-05-28 11:29:00,65.8,59.1,28.84,SE,135,0.0,0.0,79,0.00,CLR,SKC,0.14,WeatherDisplay:10.37,2013-05-28 15:29:00,
2013-05-28 11:34:00,67.6,59.4,28.84,ESE,112,0.0,0.0,75,0.00,CLR,SKC,0.14,WeatherDisplay:10.37,2013-05-28 15:34:00,
2013-05-28 11:39:00,68.4,46.8,28.84,East,90,0.0,0.0,46,0.00,CLR,SKC,0.14,WeatherDisplay:10.37,2013-05-28 15:39:00,
2013-05-28 11:44:00,69.1,30.7,28.84,East,90,0.0,0.0,24,0.00,CLR,SKC,0.14,WeatherDisplay:10.37,2013-05-28 15:44:00,
2013-05-28 11:49:00,69.4,14.6,28.84,SE,135,0.0,0.0,12,0.00,CLR,SKC,0.14,WeatherDisplay:10.37,2013-05-28 15:49:00,
2013-05-28 11:54:00,69.6,14.7,28.84,NE,45,0.0,0.0,12,0.00,CLR,SKC,0.14,WeatherDisplay:10.37,2013-05-28 15:54:00,
2013-05-28 11:59:00,70.0,15.0,28.84,SE,135,4.6,0.0,12,0.00,CLR,SKC,0.14,WeatherDisplay:10.37,2013-05-28 15:59:00,
2013-05-28 12:04:00,70.9,15.7,28.83,East,90,3.5,3.5,12,0.00,CLR,SKC,0.14,WeatherDisplay:10.37,2013-05-28 16:04:00,
2013-05-28 12:09:00,71.4,16.1,28.84,NE,45,4.5,4.5,12,0.00,CLR,SKC,0.14,WeatherDisplay:10.37,2013-05-28 16:09:00,
2013-05-28 12:14:00,71.1,15.8,28.84,SE,135,3.5,3.5,12,0.00,CLR,SKC,0.14,WeatherDisplay:10.37,2013-05-28 16:14:00,
2013-05-28 12:19:00,71.6,16.2,28.84,SE,135,1.2,0.0,12,0.00,CLR,SKC,0.14,WeatherDisplay:10.37,2013-05-28 16:19:00,
2013-05-28 12:24:00,72.3,16.8,28.83,East,90,0.0,0.0,12,0.00,CLR,SKC,0.14,WeatherDisplay:10.37,2013-05-28 16:24:00,
2013-05-28 12:29:00,72.5,16.9,28.83,East,90,0.0,0.0,12,0.00,CLR,SKC,0.14,WeatherDisplay:10.37,2013-05-28 16:29:00,
2013-05-28 12:34:00,72.0,16.5,28.84,SE,135,3.5,0.0,12,0.00,CLR,SKC,0.14,WeatherDisplay:10.37,2013-05-28 16:34:00,
2013-05-28 12:39:00,71.8,16.4,28.83,NE,45,1.2,0.0,12,0.00,CLR,SKC,0.14,WeatherDisplay:10.37,2013-05-28 16:39:00,
2013-05-28 12:44:00,72.0,16.5,28.84,SE,135,2.3,0.0,12,0.00,CLR,SKC,0.14,WeatherDisplay:10.37,2013-05-28 16:44:00,
2013-05-28 12:49:00,72.1,16.7,28.84,SE,135,0.0,0.0,12,0.00,CLR,SKC,0.14,WeatherDisplay:10.37,2013-05-28 16:49:00,
2013-05-28 12:54:00,73.0,17.4,28.84,South,180,3.5,0.0,12,0.00,CLR,SKC,0.14,WeatherDisplay:10.37,2013-05-28 16:54:00,
2013-05-28 12:59:00,73.4,17.6,28.84,SE,135,1.2,0.0,12,0.00,CLR,SKC,0.14,WeatherDisplay:10.37,2013-05-28 16:59:00,
2013-05-28 13:04:00,73.0,17.4,28.84,NE,45,1.2,0.0,12,0.00,CLR,SKC,0.14,WeatherDisplay:10.37,2013-05-28 17:04:00,
2013-05-28 13:09:00,72.1,16.7,28.84,South,180,2.3,0.0,12,0.00,CLR,SKC,0.14,WeatherDisplay:10.37,2013-05-28 17:09:00,
2013-05-28 13:14:00,72.3,16.8,28.83,East,90,1.2,0.0,12,0.00,CLR,SKC,0.14,WeatherDisplay:10.37,2013-05-28 17:14:00,
2013-05-28 13:19:00,72.7,17.1,28.83,SE,135,3.5,3.5,12,0.00,CLR,SKC,0.14,WeatherDisplay:10.37,2013-05-28 17:19:00,
2013-05-28 13:24:00,73.0,17.4,28.83,North,6,3.5,3.5,12,0.00,CLR,SKC,0.14,WeatherDisplay:10.37,2013-05-28 17:24:00,
2013-05-28 13:29:00,73.4,17.6,28.83,South,180,1.2,0.0,12,0.00,CLR,SKC,0.14,WeatherDisplay:10.37,2013-05-28 17:29:00,
2013-05-28 13:34:00,73.6,17.8,28.83,West,270,1.2,0.0,12,0.00,CLR,SKC,0.14,WeatherDisplay:10.37,2013-05-28 17:34:00,
2013-05-28 13:39:00,73.6,17.8,28.82,West,270,1.2,0.0,12,0.00,CLR,SKC,0.14,WeatherDisplay:10.37,2013-05-28 17:39:00,
2013-05-28 13:44:00,74.7,18.6,28.82,East,90,0.0,0.0,12,0.00,CLR,SKC,0.14,WeatherDisplay:10.37,2013-05-28 17:44:00,
2013-05-28 13:49:00,75.9,19.6,28.81,SE,135,0.0,0.0,12,0.00,CLR,SKC,0.14,WeatherDisplay:10.37,2013-05-28 17:49:00,
2013-05-28 13:54:00,77.5,20.9,28.81,East,90,0.0,1.6,12,0.00,CLR,SKC,0.14,WeatherDisplay:10.37,2013-05-28 17:54:00,
2013-05-28 13:59:00,77.7,21.0,28.80,East,90,4.6,4.6,12,0.00,CLR,SKC,0.14,WeatherDisplay:10.37,2013-05-28 17:59:00,
2013-05-28 14:04:00,78.3,21.4,28.81,West,270,3.5,3.5,12,0.00,CLR,SKC,0.14,WeatherDisplay:10.37,2013-05-28 18:04:00,
2013-05-28 14:09:00,79.2,22.1,28.80,South,180,2.3,0.0,12,0.00,CLR,SKC,0.14,WeatherDisplay:10.37,2013-05-28 18:09:00,
2013-05-28 14:14:00,79.9,22.7,28.80,SE,135,1.2,0.0,12,0.00,CLR,SKC,0.14,WeatherDisplay:10.37,2013-05-28 18:14:00,
2013-05-28 14:19:00,80.2,23.0,28.80,South,180,1.2,0.0,12,0.00,CLR,SKC,0.14,WeatherDisplay:10.37,2013-05-28 18:19:00,
2013-05-28 14:24:00,81.5,24.0,28.80,East,90,0.0,0.0,12,0.00,CLR,SKC,0.14,WeatherDisplay:10.37,2013-05-28 18:24:00,
2013-05-28 14:29:00,82.2,24.5,28.80,South,180,3.5,3.5,12,0.00,CLR,SKC,0.14,WeatherDisplay:10.37,2013-05-28 18:29:00,
2013-05-28 14:34:00,81.5,24.0,28.80,SE,135,0.0,0.0,12,0.00,CLR,SKC,0.14,WeatherDisplay:10.37,2013-05-28 18:34:00,
2013-05-28 14:39:00,80.4,23.1,28.80,East,90,3.5,3.5,12,0.00,CLR,SKC,0.14,WeatherDisplay:10.37,2013-05-28 18:39:00,
2013-05-28 14:44:00,80.2,32.9,28.80,SE,135,3.5,3.5,18,0.00,CLR,SKC,0.14,WeatherDisplay:10.37,2013-05-28 18:44:00,
2013-05-28 14:49:00,80.4,40.3,28.80,East,90,0.0,0.0,24,0.00,CLR,SKC,0.14,WeatherDisplay:10.37,2013-05-28 18:49:00,
2013-05-28 14:54:00,80.4,40.3,28.80,East,90,1.2,0.0,24,0.00,CLR,SKC,0.14,WeatherDisplay:10.37,2013-05-28 18:54:00,
2013-05-28 14:59:00,79.9,45.7,28.80,SE,135,0.0,0.0,30,0.00,CLR,SKC,0.14,WeatherDisplay:10.37,2013-05-28 18:59:00,
2013-05-28 15:04:00,79.3,48.5,28.80,East,90,5.8,5.8,34,0.00,CLR,SKC,0.14,WeatherDisplay:10.37,2013-05-28 19:04:00,
2013-05-28 15:09:00,78.8,49.6,28.80,SE,135,4.6,4.6,36,0.00,CLR,SKC,0.14,WeatherDisplay:10.37,2013-05-28 19:09:00,
2013-05-28 15:14:00,78.8,53.1,28.80,South,180,5.8,5.8,41,0.00,CLR,SKC,0.14,WeatherDisplay:10.37,2013-05-28 19:14:00,
2013-05-28 15:19:00,78.3,54.6,28.80,South,180,6.9,6.9,44,0.00,CLR,SKC,0.14,WeatherDisplay:10.37,2013-05-28 19:19:00,
2013-05-28 15:24:00,77.7,56.5,28.81,South,180,3.5,0.0,48,0.00,CLR,SKC,0.14,WeatherDisplay:10.37,2013-05-28 19:24:00,
2013-05-28 15:29:00,78.1,57.4,28.80,NE,45,8.3,8.3,49,0.00,CLR,SKC,0.14,WeatherDisplay:10.37,2013-05-28 19:29:00,
2013-05-28 15:34:00,79.2,57.8,28.80,South,180,5.8,5.8,48,0.00,CLR,SKC,0.14,WeatherDisplay:10.37,2013-05-28 19:34:00,
2013-05-28 15:39:00,78.8,58.6,28.80,East,90,8.1,8.1,50,0.00,CLR,SKC,0.14,WeatherDisplay:10.37,2013-05-28 19:39:00,
2013-05-28 15:44:00,79.0,58.2,28.80,East,90,6.9,6.9,49,0.00,CLR,SKC,0.14,WeatherDisplay:10.37,2013-05-28 19:44:00,
2013-05-28 15:49:00,80.1,59.7,28.80,North,0,8.1,0.0,50,0.00,CLR,SKC,0.14,WeatherDisplay:10.37,2013-05-28 19:49:00,
2013-05-28 15:54:00,80.8,58.7,28.80,South,180,5.8,5.8,47,0.00,CLR,SKC,0.14,WeatherDisplay:10.37,2013-05-28 19:54:00,
2013-05-28 15:59:00,81.1,57.2,28.80,South,180,5.8,0.0,44,0.00,CLR,SKC,0.14,WeatherDisplay:10.37,2013-05-28 19:59:00,
2013-05-28 16:04:00,80.2,57.0,28.79,South,180,6.9,6.9,45,0.00,CLR,SKC,0.14,WeatherDisplay:10.37,2013-05-28 20:04:00,
2013-05-28 16:09:00,80.1,58.0,28.79,SE,135,4.6,4.6,47,0.00,CLR,SKC,0.14,WeatherDisplay:10.37,2013-05-28 20:09:00,
2013-05-28 16:14:00,79.7,59.4,28.79,SE,135,4.6,4.6,50,0.00,CLR,SKC,0.14,WeatherDisplay:10.37,2013-05-28 20:14:00,
2013-05-28 16:19:00,79.9,60.1,28.78,SE,135,8.1,8.1,51,0.00,CLR,SKC,0.14,WeatherDisplay:10.37,2013-05-28 20:19:00,
2013-05-28 16:24:00,79.9,60.1,28.78,South,180,5.8,5.8,51,0.00,CLR,SKC,0.14,WeatherDisplay:10.37,2013-05-28 20:24:00,
2013-05-28 16:29:00,79.3,61.2,28.78,SE,135,4.6,0.0,54,0.00,CLR,SKC,0.14,WeatherDisplay:10.37,2013-05-28 20:29:00,
2013-05-28 16:34:00,79.7,62.1,28.78,SE,135,5.8,5.8,55,0.00,CLR,SKC,0.14,WeatherDisplay:10.37,2013-05-28 20:34:00,
2013-05-28 16:39:00,79.9,62.3,28.79,South,180,2.3,0.0,55,0.00,CLR,SKC,0.14,WeatherDisplay:10.37,2013-05-28 20:39:00,
2013-05-28 16:44:00,79.5,62.4,28.78,East,90,8.1,0.0,56,0.00,CLR,SKC,0.14,WeatherDisplay:10.37,2013-05-28 20:44:00,
2013-05-28 16:49:00,79.5,62.9,28.78,South,180,2.3,0.0,57,0.00,CLR,SKC,0.14,WeatherDisplay:10.37,2013-05-28 20:49:00,
2013-05-28 16:54:00,79.7,63.1,28.78,East,90,5.8,5.8,57,0.00,CLR,SKC,0.14,WeatherDisplay:10.37,2013-05-28 20:54:00,
2013-05-28 16:59:00,79.5,63.4,28.77,SE,135,8.1,8.1,58,0.00,CLR,SKC,0.14,WeatherDisplay:10.37,2013-05-28 20:59:00,
2013-05-28 17:04:00,79.5,63.4,28.78,NE,45,4.6,4.6,58,0.00,CLR,SKC,0.14,WeatherDisplay:10.37,2013-05-28 21:04:00,
2013-05-28 17:09:00,79.7,64.1,28.78,South,180,4.6,4.6,59,0.00,CLR,SKC,0.14,WeatherDisplay:10.37,2013-05-28 21:09:00,
2013-05-28 17:14:00,80.2,64.1,28.77,East,90,2.3,3.8,58,0.00,CLR,SKC,0.14,WeatherDisplay:10.37,2013-05-28 21:14:00,
2013-05-28 17:19:00,79.9,63.8,28.77,SE,135,4.6,4.6,58,0.00,CLR,SKC,0.14,WeatherDisplay:10.37,2013-05-28 21:19:00,
2013-05-28 17:24:00,79.7,64.1,28.77,SE,135,2.3,0.0,59,0.00,CLR,SKC,0.14,WeatherDisplay:10.37,2013-05-28 21:24:00,
2013-05-28 17:29:00,79.5,64.9,28.77,NE,45,10.4,10.4,61,0.00,CLR,SKC,0.14,WeatherDisplay:10.37,2013-05-28 21:29:00,
2013-05-28 17:34:00,79.5,65.4,28.77,South,180,4.6,0.0,62,0.00,CLR,SKC,0.14,WeatherDisplay:10.37,2013-05-28 21:34:00,
2013-05-28 17:40:00,79.7,65.5,28.77,East,90,5.8,5.8,62,0.00,CLR,SKC,0.14,WeatherDisplay:10.37,2013-05-28 21:40:00,
2013-05-28 17:45:00,79.5,65.8,28.77,East,90,11.5,11.5,63,0.00,CLR,SKC,0.14,WeatherDisplay:10.37,2013-05-28 21:45:00,
2013-05-28 17:50:00,80.1,66.8,28.76,East,90,3.5,3.5,64,0.00,CLR,SKC,0.14,WeatherDisplay:10.37,2013-05-28 21:50:00,
2013-05-28 17:55:00,80.6,66.4,28.76,SE,135,3.5,0.0,62,0.00,CLR,SKC,0.14,WeatherDisplay:10.37,2013-05-28 21:55:00,
2013-05-28 18:00:00,81.5,66.3,28.76,East,90,6.9,0.0,60,0.00,CLR,SKC,0.14,WeatherDisplay:10.37,2013-05-28 22:00:00,
2013-05-28 18:05:00,81.3,64.6,28.76,NE,45,5.8,5.8,57,0.00,CLR,SKC,0.14,WeatherDisplay:10.37,2013-05-28 22:05:00,
2013-05-28 18:10:00,81.1,63.4,28.76,South,180,4.6,4.6,55,0.00,CLR,SKC,0.14,WeatherDisplay:10.37,2013-05-28 22:10:00,
2013-05-28 18:15:00,81.0,62.7,28.76,SE,135,10.4,10.4,54,0.00,CLR,SKC,0.14,WeatherDisplay:10.37,2013-05-28 22:15:00,
2013-05-28 18:20:00,80.2,63.1,28.76,SE,135,8.1,8.1,56,0.00,CLR,SKC,0.14,WeatherDisplay:10.37,2013-05-28 22:20:00,
2013-05-28 18:25:00,80.1,64.0,28.76,South,180,3.5,0.0,58,0.00,CLR,SKC,0.14,WeatherDisplay:10.37,2013-05-28 22:25:00,
2013-05-28 18:30:00,79.5,63.9,28.75,South,180,6.9,6.9,59,0.00,CLR,SKC,0.14,WeatherDisplay:10.37,2013-05-28 22:30:00,
2013-05-28 18:35:00,79.3,63.8,28.75,SE,135,3.5,3.5,59,0.00,CLR,SKC,0.14,WeatherDisplay:10.37,2013-05-28 22:35:00,
2013-05-28 18:40:00,79.3,64.2,28.75,SE,135,3.5,3.5,60,0.00,CLR,SKC,0.14,WeatherDisplay:10.37,2013-05-28 22:40:00,
2013-05-28 18:45:00,79.2,63.6,28.75,South,180,3.5,3.5,59,0.00,CLR,SKC,0.14,WeatherDisplay:10.37,2013-05-28 22:45:00,
2013-05-28 18:50:00,79.2,64.1,28.75,East,90,5.8,5.8,60,0.00,CLR,SKC,0.14,WeatherDisplay:10.37,2013-05-28 22:50:00,
2013-05-28 18:55:00,79.3,64.2,28.76,South,180,1.2,0.0,60,0.00,CLR,SKC,0.14,WeatherDisplay:10.37,2013-05-28 22:55:00,
2013-05-28 19:00:00,79.7,64.6,28.75,West,270,1.2,1.2,60,0.00,CLR,SKC,0.14,WeatherDisplay:10.37,2013-05-28 23:00:00,
2013-05-28 19:05:00,79.0,63.9,28.75,ESE,112,3.5,3.5,60,0.00,CLR,SKC,0.14,WeatherDisplay:10.37,2013-05-28 23:05:00,
2013-05-28 19:10:00,78.6,63.6,28.75,NE,45,5.8,5.8,60,0.00,CLR,SKC,0.14,WeatherDisplay:10.37,2013-05-28 23:10:00,
2013-05-28 19:15:00,78.3,63.7,28.76,East,90,3.5,3.5,61,0.00,CLR,SKC,0.14,WeatherDisplay:10.37,2013-05-28 23:15:00,
2013-05-28 19:20:00,78.3,63.7,28.76,South,180,9.2,9.2,61,0.00,CLR,SKC,0.14,WeatherDisplay:10.37,2013-05-28 23:20:00,
2013-05-28 19:25:00,78.6,64.5,28.76,East,90,0.0,0.0,62,0.00,CLR,SKC,0.14,WeatherDisplay:10.37,2013-05-28 23:25:00,
2013-05-28 19:30:00,79.5,64.9,28.76,East,90,3.5,0.0,61,0.00,CLR,SKC,0.14,WeatherDisplay:10.37,2013-05-28 23:30:00,
2013-05-28 19:35:00,79.7,64.6,28.76,South,180,3.5,0.0,60,0.00,CLR,SKC,0.14,WeatherDisplay:10.37,2013-05-28 23:35:00,
2013-05-28 19:40:00,79.5,64.9,28.76,East,90,1.2,0.0,61,0.00,CLR,SKC,0.14,WeatherDisplay:10.37,2013-05-28 23:40:00,
2013-05-28 19:45:00,78.6,65.0,28.76,NE,45,3.5,3.5,63,0.00,CLR,SKC,0.14,WeatherDisplay:10.37,2013-05-28 23:45:00,
2013-05-28 19:50:00,78.1,64.5,28.76,SE,135,1.2,1.6,63,0.00,CLR,SKC,0.14,WeatherDisplay:10.37,2013-05-28 23:50:00,
2013-05-28 19:55:00,77.7,64.6,28.76,East,90,1.2,0.0,64,0.00,CLR,SKC,0.14,WeatherDisplay:10.37,2013-05-28 23:55:00,
2013-05-28 20:00:00,77.7,65.0,28.76,SE,135,1.2,0.0,65,0.00,CLR,SKC,0.14,WeatherDisplay:10.37,2013-05-29 00:00:00,
2013-05-28 20:05:00,77.7,65.0,28.76,East,90,0.0,0.0,65,0.00,CLR,SKC,0.14,WeatherDisplay:10.37,2013-05-29 00:05:00,
2013-05-28 20:10:00,77.7,65.0,28.76,East,90,2.3,2.3,65,0.00,CLR,SKC,0.14,WeatherDisplay:10.37,2013-05-29 00:10:00,
2013-05-28 20:14:00,77.2,64.9,28.76,SE,135,3.5,0.0,66,0.00,CLR,SKC,0.14,WeatherDisplay:10.37,2013-05-29 00:14:00,
2013-05-28 20:20:00,76.5,64.7,28.76,East,90,1.2,0.0,67,0.00,CLR,SKC,0.14,WeatherDisplay:10.37,2013-05-29 00:20:00,
2013-05-28 20:24:00,75.7,64.8,28.76,East,90,2.3,0.0,69,0.00,CLR,SKC,0.14,WeatherDisplay:10.37,2013-05-29 00:24:00,
2013-05-28 20:30:00,75.2,64.3,28.76,East,90,1.2,0.0,69,0.00,CLR,SKC,0.14,WeatherDisplay:10.37,2013-05-29 00:30:00,
2013-05-28 20:34:00,74.7,64.6,28.76,East,90,0.0,0.0,71,0.00,CLR,SKC,0.14,WeatherDisplay:10.37,2013-05-29 00:34:00,
2013-05-28 20:39:00,74.5,64.5,28.76,East,90,0.0,0.0,71,0.00,CLR,SKC,0.14,WeatherDisplay:10.37,2013-05-29 00:39:00,
2013-05-28 20:44:00,73.9,64.3,28.76,NE,45,0.0,0.0,72,0.00,CLR,SKC,0.14,WeatherDisplay:10.37,2013-05-29 00:44:00,
2013-05-28 20:49:00,73.6,64.4,28.76,NE,45,0.0,0.0,73,0.00,CLR,SKC,0.14,WeatherDisplay:10.37,2013-05-29 00:49:00,
2013-05-28 20:54:00,73.2,64.4,28.76,East,90,0.0,0.0,74,0.00,CLR,SKC,0.14,WeatherDisplay:10.37,2013-05-29 00:54:00,
2013-05-28 20:59:00,72.7,64.3,28.76,NE,45,0.0,0.0,75,0.00,CLR,SKC,0.14,WeatherDisplay:10.37,2013-05-29 00:59:00,
2013-05-28 21:04:00,72.5,64.5,28.76,NE,45,0.0,0.0,76,0.00,CLR,SKC,0.14,WeatherDisplay:10.37,2013-05-29 01:04:00,
2013-05-28 21:09:00,72.1,64.2,28.76,East,90,0.0,0.0,76,0.00,CLR,SKC,0.14,WeatherDisplay:10.37,2013-05-29 01:09:00,
2013-05-28 21:14:00,71.8,63.8,28.76,NE,45,0.0,0.0,76,0.00,CLR,SKC,0.14,WeatherDisplay:10.37,2013-05-29 01:14:00,
2013-05-28 21:19:00,71.6,64.0,28.76,East,90,0.0,0.0,77,0.00,CLR,SKC,0.14,WeatherDisplay:10.37,2013-05-29 01:19:00,
2013-05-28 21:24:00,71.4,64.2,28.76,East,90,0.0,0.0,78,0.00,CLR,SKC,0.14,WeatherDisplay:10.37,2013-05-29 01:24:00,
2013-05-28 21:29:00,71.2,64.0,28.76,East,90,0.0,0.0,78,0.00,CLR,SKC,0.14,WeatherDisplay:10.37,2013-05-29 01:29:00,
2013-05-28 21:34:00,71.1,63.5,28.76,East,90,0.0,0.0,77,0.00,CLR,SKC,0.14,WeatherDisplay:10.37,2013-05-29 01:34:00,
2013-05-28 21:39:00,71.1,63.9,28.77,East,90,0.0,0.0,78,0.00,CLR,SKC,0.14,WeatherDisplay:10.37,2013-05-29 01:39:00,
2013-05-28 21:44:00,70.9,63.7,28.77,East,90,0.0,0.0,78,0.00,CLR,SKC,0.14,WeatherDisplay:10.37,2013-05-29 01:44:00,
2013-05-28 21:49:00,70.9,63.7,28.77,East,90,0.0,0.0,78,0.00,CLR,SKC,0.14,WeatherDisplay:10.37,2013-05-29 01:49:00,
2013-05-28 21:54:00,70.9,63.7,28.77,East,90,0.0,0.0,78,0.00,CLR,SKC,0.14,WeatherDisplay:10.37,2013-05-29 01:54:00,
2013-05-28 21:59:00,70.9,63.7,28.77,East,90,0.0,0.0,78,0.00,CLR,SKC,0.14,WeatherDisplay:10.37,2013-05-29 01:59:00,
2013-05-28 22:04:00,70.7,63.5,28.77,NE,45,0.0,0.0,78,0.00,CLR,SKC,0.14,WeatherDisplay:10.37,2013-05-29 02:04:00,
2013-05-28 22:09:00,70.7,63.5,28.78,NE,45,0.0,0.0,78,0.00,CLR,SKC,0.14,WeatherDisplay:10.37,2013-05-29 02:09:00,
2013-05-28 22:14:00,70.9,63.7,28.77,East,90,0.0,0.0,78,0.00,CLR,SKC,0.14,WeatherDisplay:10.37,2013-05-29 02:14:00,
2013-05-28 22:19:00,70.7,63.5,28.78,NE,45,0.0,0.0,78,0.00,CLR,SKC,0.14,WeatherDisplay:10.37,2013-05-29 02:19:00,
2013-05-28 22:24:00,70.5,63.3,28.77,East,90,0.0,0.0,78,0.00,CLR,SKC,0.14,WeatherDisplay:10.37,2013-05-29 02:24:00,
2013-05-28 22:29:00,70.5,63.3,28.77,East,90,0.0,0.0,78,0.00,CLR,SKC,0.14,WeatherDisplay:10.37,2013-05-29 02:29:00,
2013-05-28 22:34:00,70.2,63.3,28.77,East,90,0.0,0.0,79,0.00,CLR,SKC,0.14,WeatherDisplay:10.37,2013-05-29 02:34:00,
2013-05-28 22:39:00,70.2,63.3,28.77,East,90,0.0,0.0,79,0.00,CLR,SKC,0.14,WeatherDisplay:10.37,2013-05-29 02:39:00,
2013-05-28 22:44:00,70.2,63.0,28.77,SE,135,0.0,0.0,78,0.00,CLR,SKC,0.14,WeatherDisplay:10.37,2013-05-29 02:44:00,
2013-05-28 22:49:00,70.2,63.0,28.78,East,90,0.0,0.0,78,0.00,CLR,SKC,0.14,WeatherDisplay:10.37,2013-05-29 02:49:00,
2013-05-28 22:54:00,70.3,63.2,28.77,East,90,0.0,0.0,78,0.00,CLR,SKC,0.14,WeatherDisplay:10.37,2013-05-29 02:54:00,
2013-05-28 22:59:00,70.2,63.0,28.77,East,90,0.0,0.0,78,0.00,CLR,SKC,0.14,WeatherDisplay:10.37,2013-05-29 02:59:00,
2013-05-28 23:04:00,70.2,63.0,28.77,East,90,0.0,0.0,78,0.00,CLR,SKC,0.14,WeatherDisplay:10.37,2013-05-29 03:04:00,
2013-05-28 23:09:00,70.0,62.8,28.77,SE,135,1.2,0.0,78,0.00,CLR,SKC,0.14,WeatherDisplay:10.37,2013-05-29 03:09:00,
2013-05-28 23:14:00,70.0,62.8,28.77,East,90,1.2,0.0,78,0.00,CLR,SKC,0.14,WeatherDisplay:10.37,2013-05-29 03:14:00,
2013-05-28 23:19:00,69.8,62.6,28.77,East,90,1.2,0.0,78,0.00,CLR,SKC,0.14,WeatherDisplay:10.37,2013-05-29 03:19:00,
2013-05-28 23:24:00,69.6,62.5,28.77,SE,135,0.0,0.0,78,0.00,CLR,SKC,0.14,WeatherDisplay:10.37,2013-05-29 03:24:00,
2013-05-28 23:29:00,69.6,62.5,28.78,East,90,1.2,0.0,78,0.00,CLR,SKC,0.14,WeatherDisplay:10.37,2013-05-29 03:29:00,
2013-05-28 23:34:00,69.4,62.3,28.77,SE,135,1.2,0.0,78,0.00,CLR,SKC,0.14,WeatherDisplay:10.37,2013-05-29 03:34:00,
2013-05-28 23:39:00,69.4,62.3,28.78,East,90,0.0,0.0,78,0.00,CLR,SKC,0.14,WeatherDisplay:10.37,2013-05-29 03:39:00,
2013-05-28 23:44:00,69.3,62.5,28.78,SE,135,0.0,0.0,79,0.00,CLR,SKC,0.14,WeatherDisplay:10.37,2013-05-29 03:44:00,
2013-05-28 23:49:00,69.3,62.5,28.78,East,90,0.0,0.0,79,0.00,CLR,SKC,0.14,WeatherDisplay:10.37,2013-05-29 03:49:00,
2013-05-28 23:55:00,69.3,62.5,28.78,SE,135,0.0,0.0,79,0.00,CLR,SKC,0.14,WeatherDisplay:10.37,2013-05-29 03:55:00,